User: anonymous   Login
Location: Oshawa
(43.9000°N, 78.8670°W)
Time: 09:57:18
(UTC-05:00)
Language:

Altair - Orbit

View from above orbital plane
View from above orbital plane
View from above satellite
View from above satellite

Ground track
Ground track

The orbit data is extracted from the following two-line orbital elements,

1 00050U 60009B   17346.48604984 -.00000115  00000-0 -26823-3 0  9997
2 00050  47.2317  90.3120 0113852 110.2168 251.0905 12.20102918558607
Epoch (UTC): 12 December 2017 11:39:54
Eccentricity: 0.0113852
inclination: 47.2317°
perigee height: 1501 km
apogee height: 1683 km
right ascension of ascending node: 90.3120°
argument of perigee: 110.2168°
revolutions per day: 12.20102918
mean anomaly at epoch: 251.0905°
orbit number at epoch: 55860

The dashed part of the orbit path shows where the satellite is in the earth's shadow,  

DLR